Regional Weather Roundup
Issued by NWS

Home | Current Version | Previous Version | Graphics & Text | Print | Product List | Glossary On
Versions: 1 2 3 4 5 6 7 8 9 10 11 12 13 14 15 16 17 18 19 20 21 22 23 24 25 26 27 28 29 30 31 32 33 34 35 36 37 38 39 40 41 42 43 44 45 46 47 48 49 50
000
ASUS43 KMKX 260500
RWRWI

WISCONSIN REGIONAL WEATHER ROUNDUP
NATIONAL WEATHER SERVICE MILWAUKEE/SULLIVAN WI
1200 AM CDT SUN APR 26 2015

NOTE: "FAIR" INDICATES FEW OR NO CLOUDS BELOW 12,000 FEET WITH NO
SIGNIFICANT WEATHER AND/OR OBSTRUCTIONS TO VISIBILITY.

WIZ001-002-006>008-014>016-023>028-260600-
NORTHWEST WISCONSIN

CITY           SKY/WX    TMP DP  RH WIND       PRES   REMARKS
SUPERIOR ARPT  FAIR      33  25  71 NE6       30.07R WCI  28
ASHLAND        CLEAR     28  23  81 NW3       30.06R
HAYWARD        CLEAR     32  23  69 CALM      30.02R
SIREN          CLEAR     37  20  50 NE5       30.03R WCI  34
CUMBERLAND     CLEAR     36  21  55 NE8       29.99R WCI  29
RICE LAKE      CLEAR     37  23  56 N7        30.01R WCI  32
CHETEK         CLEAR     43  20  40 N5        29.99R
LADYSMITH      CLEAR     38  24  59 N7        30.01R WCI  32
EAU CLAIRE     NOT AVBL
MENOMONIE      CLEAR     43  22  44 N6        29.98R
NEW RICHMOND   CLEAR     42  22  44 NE9       29.99R
OSCEOLA        CLEAR     42  19  40 N6        30.02R
$$

WIZ003>005-009-010-017-018-260600-
NORTH CENTRAL WISCONSIN

CITY           SKY/WX    TMP DP  RH WIND       PRES   REMARKS
MANITOWISH WTR CLEAR     33  21  61 NE3       30.00R
ARBOR VITAE    CLEAR     37  19  47 NE3       29.99R
WOODRUFF       CLEAR     37  19  47 NE3       29.99R
RHINELANDER    CLEAR     35  21  56 CALM      29.99R
EAGLE RIVER    CLEAR     33  19  56 N3        29.99R
LAND O LAKES   CLEAR     32  18  57 NE5       30.01R WCI  27
PHILLIPS       CLEAR     35  22  58 N5        29.99R WCI  31
TOMAHAWK       CLEAR     39  22  50 CALM      29.99R
MEDFORD        CLEAR     40  20  45 E5        29.97R
MERRILL        CLEAR     34  23  64 CALM      29.98R
$$

WIZ029-030-035-036-043>047-260600-
CENTRAL WISCONSIN

CITY           SKY/WX    TMP DP  RH WIND       PRES   REMARKS
WAUSAU         CLEAR     37  20  50 CALM      29.96R
MOSINEE        CLEAR     37  19  48 NE6       29.98R WCI  33
MARSHFIELD     CLEAR     40  20  44 NE5       29.96R
STEVENS POINT  CLEAR     29  18  64 CALM      29.97R
WAUPACA        CLEAR     38  19  47 N3        29.97R
WAUTOMA        NOT AVBL
WISC RAPIDS    CLEAR     38  15  39 NE7       29.97R WCI  33
CAMP DOUGLAS   NOT AVBL
$$

WIZ011>013-019>022-031-037>040-048>050-260600-
NORTHEAST WISCONSIN

CITY           SKY/WX    TMP DP  RH WIND       PRES   REMARKS
ANTIGO         CLEAR     32  24  73 NE5       29.98R WCI  27
SHAWANO        CLEAR     42  25  51 NE7       29.98R
OCONTO         CLEAR     37  22  54 NE8       29.98R WCI  31
STURGEON BAY   CLEAR     37  21  52 N10       29.99R WCI  30
GREEN BAY      CLEAR     42  29  59 NE13      29.96R
MANITOWOC      NOT AVBL
APPLETON       CLEAR     41  23  48 NE12      29.95R
CLINTONVILLE   CLEAR     37  21  52 NE6       29.97R WCI  33
OSHKOSH        CLEAR     43  25  49 NE13      29.94R
$$

WIZ032>034-041-042-053>061-260600-
SOUTHWEST WISCONSIN

CITY           SKY/WX    TMP DP  RH WIND       PRES   REMARKS
LA CROSSE      CLEAR     41  22  46 E3        29.95R
SPARTA         CLEAR     31  23  71 CALM      29.95R
VIROQUA        CLEAR     38  17  42 E9        29.93R WCI  32
BOSCOBEL       CLEAR     33  28  81 CALM      29.94R
PRAIRIE DU CHI CLEAR     36  30  80 CALM      29.93R
PLATTEVILLE    CLEAR     37  30  74 NE7       29.90S WCI  32
$$

WIZ056-057-062-063-064-067-068-260600-
SOUTH CENTRAL WISCONSIN

CITY           SKY/WX    TMP DP  RH WIND       PRES   REMARKS
REEDSBURG      CLEAR     39  11  31 CALM      29.93R
BARABOO/DELLS  CLEAR     38  11  33 NE8       29.92S WCI  32
LONE ROCK      NOT AVBL
MINERAL POINT  CLEAR     43  25  49 NE7       29.90S
MADISON        CLEAR     38  25  59 N6        29.92R WCI  33
MIDDLETON      CLEAR     37  25  64 NE7       29.92R WCI  31
WATERTOWN      CLEAR     38  20  47 CALM      29.90S
MONROE         CLEAR     37  23  56 NE9       29.89R WCI  31
JANESVILLE     CLEAR     41  27  56 NE7       29.89S
$$

WIZ051-052-058>065-066-070>072-260600-
SOUTHEAST WISCONSIN

CITY           SKY/WX    TMP DP  RH WIND       PRES   REMARKS
MILWAUKEE      CLEAR     41  26  55 N13G22    29.89R
WAUKESHA       CLEAR     36  21  55 N5        29.90S WCI  32
MILWAUKEE/TIMM PTCLDY    37  21  52 N6        29.90R WCI  33
RACINE         CLEAR     40  29  64 N13       29.90R WCI  32
BURLINGTON     CLEAR     36  22  57 N7        29.88S WCI  30
KENOSHA        CLEAR     39  28  64 N8        29.88R WCI  33
FOND DU LAC    CLEAR     40  22  48 NE13      29.93R WCI  32
SHEBOYGAN      CLEAR     38  24  57 N10       29.92R WCI  31
WEST BEND      CLEAR     37  21  52 N9        29.90R WCI  31
JUNEAU         CLEAR     37  21  52 N8        29.92S WCI  31
$$

LSZ147-162-260600-
LAKE SUPERIOR

STATION/POSITION TIME  TEMP    WIND        PRES    WAVE
                       AIR SEA DIR/SP/G            HT/PER
                 (UTC) (F)     (DEG/KT/KT) (MB)    (FT/S)
W MID LAKE BUOY  0350   35 34  360/  6/  6 1019.2R   1/ 4
DEVILS ISLAND    0400   36      20/ 10/ 10 1018.6F
PORT WING        0400   32      70/  1/  3 1018.3
SAXON HARBOR     0400   30        CALM     1016.9S
$$

LMZ867-665-643>646-260600-
LAKE MICHIGAN

STATION/POSITION TIME  TEMP    WIND        PRES    WAVE
                       AIR SEA DIR/SP/G            HT/PER
                 (UTC) (F)     (DEG/KT/KT) (MB)    (FT/S)
CHAMBERS ISLAND  0400   38     360/ 14/ 18 1015.2S
NORTHPORT PIER   0400   38     360/ 14/ 17 1015.2R
SISTER BAY       0317   39     360/ 14/ 20   N/A
KEWAUNEE LAKESHO 0412   41      10/ 11/ 14 1013.2R
SHEBOYGAN LAKESH 0400   42      10/ 18/ 20 1013.3S
PORT WASHINGTON  0400   41     350/  5/ 10 1012.9
MILWAUKEE LAKESH 0400   44     360/ 16/ 21   N/A
KENOSHA   LAKESH 0400   43      10/ 18/ 21 1011.2R
$$

TC  - TEMPERATURE IN CELSIUS
VSB - VISIBILITY IN STATUTE MILES
WCI - WIND CHILL INDEX
HX  - HEAT INDEX




USA.gov is the U.S. government's official web portal to all federal, state and local government web resources and services.